Temperature
20 19 19 20 21 21 21 21 21 20 20 20 19 19 19 18 18 18 18 18 17 17 17 17 17 17 17 16 16 16 16 16 16 16 16 16 16 17 16 16 16 16 16
19 19 19 19 20 21 21 21 21 21 20 20 20 20 19 19 19 19 18 18 18 18 17 17 17 17 17 16 16 16 16 16 16 16 16 16 17 16 16 16 16 16 16
18 18 18 19 19 20 21 21 21 21 21 20 20 20 19 19 18 18 18 18 18 18 18 17 17 17 17 16 16 16 16 16 16 16 16 16 17 17 17 16 16 16 16
17 17 17 17 18 19 20 20 20 20 20 20 19 19 19 18 18 18 18 18 18 18 18 17 17 17 17 17 16 16 16 16 16 16 16 16 16 16 17 16 16 16 16
16 16 16 16 17 18 19 19 19 19 19 19 19 19 18 18 17 17 17 17 18 18 18 17 17 17 17 17 16 16 16 16 16 16 15 15 15 16 16 16 16 16 16
16 16 16 16 16 17 17 18 18 18 18 18 18 17 17 17 17 17 17 17 17 17 17 17 17 17 16 16 16 16 16 16 16 15 15 15 15 15 15 15 16 16 16
16 15 15 15 15 16 16 17 17 17 17 17 16 16 16 16 16 16 16 17 17 17 17 17 16 16 16 16 16 16 16 16 16 15 15 15 15 15 15 15 15 15 16
15 14 14 14 14 15 15 15 16 15 15 15 15 15 15 16 15 16 16 16 16 16 16 16 16 16 16 16 16 16 16 15 15 15 15 15 14 14 14 14 14 14 15
14 14 14 13 13 14 14 14 15 14 15 15 15 15 15 15 15 15 15 16 16 16 16 16 16 16 16 16 15 15 15 15 15 15 14 14 14 14 14 14 14 14 14
13 13 13 13 13 13 13 14 14 14 14 14 14 14 15 15 15 15 16 16 16 16 16 16 16 15 16 16 15 15 15 15 15 15 15 14 14 14 14 14 14 14 14
12 12 13 13 13 13 13 14 14 14 14 14 14 14 15 15 15 15 16 16 16 16 15 15 15 15 15 15 15 15 15 15 15 14 14 14 14 14 14 14 14 14 14
12 12 12 13 13 13 13 13 14 14 14 14 15 15 15 15 15 15 16 16 16 15 15 15 15 15 15 15 15 15 15 15 14 14 14 14 14 14 14 14 14 14 14
12 12 12 12 13 13 13 13 14 14 14 14 15 15 15 15 15 15 15 15 15 15 15 15 15 15 15 15 15 14 14 14 14 14 14 13 13 14 14 14 14 14 13
11 11 12 12 12 13 13 13 14 14 14 14 14 14 15 15 15 15 15 15 15 15 15 15 15 15 15 15 15 14 14 14 14 14 14 14 13 13 13 13 13 13 13
11 11 11 11 12 12 13 13 13 13 14 14 14 14 14 15 15 15 15 15 15 15 15 15 15 15 15 14 14 14 14 14 14 14 14 14 14 14 14 13 13 13 13
12 12 12 12 12 12 12 12 12 13 13 13 14 14 14 14 15 15 15 15 15 15 15 15 15 15 15 15 15 14 14 14 14 14 14 14 14 14 14 14 14 13 13
12 12 12 12 12 12 11 11 12 12 12 13 13 13 13 14 14 14 14 14 14 15 15 15 15 14 14 15 15 15 14 14 14 14 14 13 14 14 13 13 14 13 13
13 12 12 12 12 12 12 12 12 12 12 12 12 12 12 13 13 13 13 13 13 14 14 14 14 14 14 14 14 14 14 14 14 14 14 13 13 13 13 13 13 13 13
13 13 12 12 12 12 12 12 12 12 11 11 11 12 12 12 12 12 12 12 12 12 13 13 13 13 13 14 14 14 14 13 13 13 13 13 13 14 14 14 13 13 13
13 13 13 13 13 12 12 12 12 12 11 11 11 11 12 12 12 12 12 12 12 12 12 12 12 12 12 13 13 13 13 13 13 13 13 14 13 14 14 14 13 13 13
14 13 13 13 13 13 13 13 12 12 11 11 11 11 11 11 12 12 12 12 12 12 11 12 12 12 12 12 13 13 13 13 13 13 13 13 13 13 13 13 13 13 13
14 14 14 13 13 13 13 13 12 12 11 11 11 11 11 11 11 12 12 12 12 11 11 11 11 11 11 12 12 12 13 13 12 12 12 13 13 13 13 13 13 13 13
14 14 14 14 14 13 13 13 12 12 11 11 11 11 11 11 11 11 11 11 11 11 11 11 11 11 11 11 12 12 12 12 12 12 12 12 12 12 12 12 13 12 12
14 15 15 14 14 14 13 13 13 12 12 11 11 11 11 11 11 11 11 11 11 10 10 10 10 10 11 11 11 11 11 11 11 12 12 12 12 12 12 12 12 11 12
14 14 14 15 15 14 14 14 13 13 12 12 11 11 11 11 10 10 10 10 10 10 10 10 10 10 10 10 11 11 11 11 11 11 11 11 11 11 11 11 11 11 11
14 14 15 15 15 15 14 14 14 13 13 12 12 11 11 11 10 10 10 10 10 10 10 10 10 10 10 10 10 10 10 10 10 10 10 10 10 10 10 10 10 10 10
Wind_Speed
10 9 9 9 12 14 16 16 16 16 13 11 11 10 9 9 8 8 10 11 12 12 10 7 8 8 8 9 10 8 8 7 6 5 5 6 7 6 4 5 5 4 3
13 12 11 9 10 13 16 18 18 17 15 12 10 9 8 7 7 6 8 11 12 12 10 10 8 9 8 10 10 9 7 6 7 6 5 5 7 7 8 6 6 6 5
15 15 15 13 11 11 14 15 16 16 15 13 8 6 5 4 4 5 6 8 11 11 11 11 10 10 10 9 10 11 10 8 8 8 6 5 6 4 6 8 8 7 6
15 15 16 15 12 11 10 12 12 13 13 13 10 9 5 4 2 2 3 6 8 10 11 11 10 10 9 10 10 11 10 10 9 7 7 6 3 3 3 5 8 9 8
15 15 15 15 13 10 6 5 7 9 10 12 12 9 5 2 1 0 2 4 5 8 9 9 9 9 8 9 9 9 11 10 10 9 8 7 5 6 4 4 4 6 8
15 14 14 12 11 9 4 2 5 7 9 11 11 9 8 5 3 1 2 3 3 5 7 7 8 8 7 8 8 9 11 10 11 10 10 9 8 8 7 7 6 6 6
15 14 13 11 10 9 7 7 9 10 9 10 10 8 8 7 4 2 2 3 4 5 6 6 7 6 7 7 7 8 9 10 11 11 10 10 11 8 8 8 8 7 5
14 12 11 9 8 9 9 9 10 11 10 10 8 8 7 4 2 1 2 4 4 4 5 6 5 5 5 5 6 6 7 8 10 11 11 9 10 9 9 8 8 7 6
13 11 8 8 7 8 9 9 10 11 11 9 8 6 6 4 2 2 4 4 3 3 4 5 5 5 5 5 5 5 6 7 8 9 10 10 9 8 9 9 8 8 7
11 9 7 7 7 8 8 8 9 10 9 7 6 4 3 2 2 3 5 4 5 5 5 5 4 5 5 4 4 4 5 6 7 6 9 9 8 8 9 9 9 9 9
10 9 8 7 7 7 7 8 7 7 6 6 4 3 1 0 2 3 3 4 5 5 5 4 4 4 4 4 4 4 5 6 7 7 8 9 10 8 9 9 9 9 9
11 10 10 9 9 8 7 7 6 6 5 3 2 1 1 2 4 3 4 4 5 4 4 4 4 3 3 3 3 3 4 5 6 7 7 8 8 9 9 8 10 9 10
15 13 12 11 10 9 8 7 6 5 4 3 2 1 1 2 2 3 3 3 3 4 4 4 4 4 3 3 3 3 3 4 4 4 5 6 6 7 7 8 8 8 9
15 14 13 13 12 10 9 8 7 5 4 3 3 3 2 1 1 1 1 2 3 3 4 5 5 5 5 5 4 4 4 3 3 3 4 4 4 5 5 5 6 6 7
15 14 13 13 12 12 11 10 9 8 7 7 7 6 5 5 4 3 1 1 2 4 5 6 6 6 6 5 5 5 4 4 4 4 3 2 2 4 3 3 3 4 4
15 14 14 13 13 12 11 10 10 9 9 9 9 7 7 6 5 4 3 2 2 3 4 6 6 6 6 3 3 6 6 6 5 4 3 3 3 3 4 3 3 4 3
13 13 13 12 12 11 11 11 10 10 10 10 9 9 8 7 7 6 5 4 3 2 2 3 3 5 3 2 6 9 7 7 6 5 4 3 2 3 4 6 7 6 4
11 11 11 10 10 10 10 10 10 11 11 11 10 9 8 8 8 8 7 6 5 4 3 3 3 2 1 1 5 7 10 7 6 6 5 5 4 2 3 3 4 3 4
9 9 9 9 9 9 9 9 10 11 11 11 10 10 9 9 8 8 8 7 6 5 5 5 5 4 3 4 3 6 7 6 6 5 4 4 4 3 2 5 4 4 3
8 8 8 9 9 9 8 9 10 10 10 10 10 9 9 9 9 8 8 7 6 6 6 6 7 7 7 8 6 5 4 4 4 3 2 0 3 2 3 5 4 4 2
8 8 7 8 8 7 7 8 9 9 8 8 8 9 9 9 8 8 8 7 7 7 7 7 7 8 9 9 10 8 2 1 2 2 2 1 2 1 1 5 3 3 4
8 8 7 7 6 6 6 7 7 6 5 6 7 8 8 8 7 8 8 8 8 8 8 8 8 7 8 9 10 10 7 6 1 1 1 3 4 3 2 2 4 2 3
8 7 7 6 5 5 5 6 5 4 4 5 6 6 7 7 8 8 8 8 8 7 7 7 7 7 7 7 8 8 8 7 4 5 7 6 4 2 4 6 2 2 1
8 8 7 6 5 5 3 3 3 3 4 5 6 6 6 7 7 7 7 7 8 8 7 7 7 7 7 8 7 6 5 5 5 5 6 5 4 3 4 2 1 3 4
8 7 7 7 7 6 4 2 2 2 3 4 5 5 6 6 6 7 6 7 8 7 7 6 6 7 7 9 10 8 7 6 5 4 4 5 4 4 4 4 4 4 3
8 8 8 8 8 7 5 3 2 2 3 4 5 5 5 5 5 5 6 7 6 8 10 11 9 7 8 9 10 12 12 11 8 6 7 6 6 6 5 5 5 5 5
Wind_Direction
344 335 317 292 268 247 237 230 220 212 204 196 199 199 205 206 207 211 214 214 221 226 227 224 219 215 218 220 222 217 211 211 209 210 217 218 227 231 212 227 228 217 199
348 346 334 313 283 258 242 234 223 213 204 197 194 197 200 206 208 210 216 220 224 226 230 230 225 221 224 227 223 214 215 210 209 216 222 229 217 224 227 222 231 235 202
346 344 339 329 307 276 253 239 226 212 201 187 178 171 171 175 187 205 216 223 227 229 232 237 233 230 227 226 223 216 215 211 213 222 219 229 230 208 213 222 223 232 228
347 343 340 335 322 299 272 249 226 209 193 177 170 169 174 185 206 219 226 228 228 231 233 236 235 233 231 230 224 219 220 216 211 213 227 238 246 217 213 214 228 230 229
347 343 342 339 333 321 296 255 214 195 178 168 162 157 150 151 95 61 246 239 232 234 233 233 232 234 232 232 227 219 220 221 219 211 207 215 226 236 238 237 232 223 228
346 346 348 349 350 352 1 71 130 138 143 145 145 146 140 136 133 191 244 236 226 232 229 226 226 228 229 231 228 224 223 227 229 224 218 215 216 220 223 233 241 244 234
347 349 352 359 8 18 40 73 99 106 115 121 122 129 131 134 153 192 224 232 219 215 211 213 218 220 225 227 225 226 227 227 231 230 229 229 232 230 224 228 236 243 249
348 350 357 6 21 34 50 69 87 93 96 105 110 108 108 114 131 201 227 227 221 212 200 199 203 206 213 216 217 228 229 232 232 235 236 237 236 233 228 228 229 238 246
347 351 6 23 39 52 61 74 86 88 89 92 95 98 101 107 147 196 222 208 191 185 185 181 179 181 191 204 205 219 223 230 235 238 239 239 240 235 234 231 230 233 242
353 1 18 31 45 55 60 68 81 87 84 84 88 87 93 122 167 204 210 192 178 172 172 173 169 168 173 188 197 214 222 229 233 237 241 239 239 237 235 232 233 232 239
5 13 20 33 46 48 47 52 63 70 71 73 70 65 46 58 238 226 203 184 175 173 171 168 174 173 177 182 188 212 213 227 234 234 237 238 237 235 231 230 230 230 231
20 24 24 31 34 38 37 33 31 39 36 50 63 69 232 225 227 212 192 181 176 179 180 169 181 174 183 192 200 207 214 226 237 240 242 243 238 236 234 229 230 230 231
25 25 25 27 29 28 27 24 23 25 22 22 21 10 219 225 224 199 180 183 189 192 193 195 198 196 203 204 208 211 216 222 233 241 248 251 247 243 238 235 236 234 234
32 28 26 26 26 27 27 28 31 37 44 51 55 55 54 54 44 98 185 220 226 228 230 224 223 218 218 221 217 218 219 218 224 233 242 250 256 260 249 242 241 239 236
32 31 29 30 29 33 33 35 38 43 54 61 59 51 46 43 40 36 5 302 278 259 248 239 234 228 230 231 229 224 227 223 220 223 226 232 356 1 329 299 271 244 235
30 32 33 33 35 36 38 42 46 49 55 57 53 46 46 44 35 29 22 8 326 285 263 250 241 235 233 180 233 252 229 227 223 222 218 187 199 191 219 270 310 313 276
27 29 32 34 35 38 40 44 48 54 56 56 51 46 44 42 36 34 33 24 10 344 303 278 263 251 235 169 221 238 246 235 233 230 214 207 219 234 229 199 212 230 233
22 25 27 31 34 39 43 49 51 52 53 52 49 45 42 43 40 38 33 25 19 17 2 348 332 305 326 279 248 229 237 233 227 228 231 227 225 227 283 260 247 248 222
13 19 20 26 34 35 36 47 53 53 51 46 43 41 40 39 37 35 32 27 27 30 26 21 12 4 20 13 301 244 230 229 226 225 236 255 255 106 284 272 266 261 247
7 10 17 27 33 30 31 44 51 51 48 44 44 43 42 39 37 35 32 30 35 38 39 37 29 28 28 24 6 296 238 229 218 216 215 84 323 46 260 265 276 281 286
3 3 14 25 25 23 33 46 50 49 45 44 44 42 40 40 36 35 36 37 39 43 45 45 39 37 31 31 25 5 328 264 219 192 185 121 66 28 292 286 313 359 330
2 359 3 15 20 21 32 49 48 43 43 44 44 42 39 36 35 37 37 38 38 40 39 41 40 36 34 30 28 27 21 356 68 99 107 92 85 75 30 359 44 12 291
356 352 348 351 9 24 23 37 42 35 39 43 42 39 43 43 38 37 36 37 35 36 33 33 31 28 26 29 35 41 42 24 43 64 65 71 76 128 105 79 28 290 339
352 345 340 342 354 0 360 9 19 11 22 35 35 37 41 45 48 43 40 40 34 32 33 29 25 24 28 22 15 25 49 73 78 86 104 112 83 76 72 98 61 40 39
345 341 338 335 332 334 331 329 334 338 8 32 40 42 48 48 52 60 48 44 48 32 21 20 20 20 25 17 10 18 34 37 47 65 76 68 66 61 56 58 53 43 47
340 340 337 329 327 329 327 319 291 303 348 26 38 40 47 49 49 64 87 71 53 45 38 29 19 51 43 33 43 50 47 40 27 62 69 62 57 53 47 46 47 41 35
Height
1512 1510 1508 1508 1509 1510 1512 1514 1517 1518 1521 1522 1524 1526 1528 1530 1531 1533 1534 1536 1537 1539 1541 1542 1544 1545 1546 1548 1550 1551 1552 1553 1555 1556 1556 1557 1557 1558 1557 1558 1558 1559 1558
1509 1507 1505 1504 1503 1504 1506 1508 1510 1513 1515 1517 1520 1522 1525 1527 1529 1530 1532 1533 1535 1536 1538 1539 1540 1542 1543 1544 1545 1546 1548 1549 1551 1553 1554 1554 1555 1553 1555 1555 1556 1557 1557
1508 1505 1502 1500 1498 1497 1498 1501 1503 1506 1508 1511 1514 1517 1521 1524 1525 1527 1529 1531 1532 1533 1534 1536 1537 1538 1539 1540 1541 1542 1544 1545 1547 1549 1550 1551 1551 1552 1553 1553 1553 1554 1555
1507 1503 1500 1496 1494 1492 1492 1494 1496 1498 1502 1504 1507 1511 1515 1519 1522 1524 1526 1527 1529 1530 1531 1532 1533 1534 1535 1536 1537 1538 1539 1541 1542 1543 1545 1547 1548 1549 1549 1550 1550 1551 1552
1506 1502 1498 1494 1490 1487 1487 1487 1489 1492 1495 1498 1501 1505 1509 1514 1518 1521 1523 1524 1525 1526 1528 1528 1529 1530 1531 1532 1533 1534 1535 1536 1537 1538 1540 1542 1543 1545 1546 1547 1548 1548 1549
1506 1502 1498 1493 1489 1486 1484 1483 1485 1487 1491 1494 1496 1500 1504 1508 1513 1516 1520 1522 1523 1523 1524 1525 1526 1527 1528 1529 1530 1530 1531 1532 1533 1534 1535 1537 1538 1539 1541 1542 1544 1545 1546
1505 1501 1497 1493 1489 1486 1484 1483 1483 1485 1488 1491 1494 1498 1500 1505 1510 1514 1517 1520 1521 1522 1522 1523 1524 1525 1525 1526 1526 1527 1528 1528 1529 1530 1531 1532 1533 1535 1537 1538 1540 1541 1543
1505 1501 1498 1494 1491 1488 1486 1485 1485 1486 1488 1491 1493 1496 1500 1504 1508 1512 1516 1519 1521 1521 1521 1522 1522 1523 1523 1523 1524 1525 1525 1525 1526 1526 1527 1528 1529 1530 1532 1534 1536 1537 1538
1505 1501 1499 1496 1493 1491 1489 1488 1488 1488 1490 1492 1495 1498 1501 1505 1509 1512 1515 1518 1519 1519 1520 1521 1521 1521 1521 1521 1522 1522 1522 1523 1523 1523 1524 1524 1525 1526 1527 1529 1531 1533 1533
1505 1502 1499 1497 1495 1493 1493 1492 1492 1493 1494 1495 1498 1501 1503 1506 1509 1513 1515 1517 1517 1519 1519 1520 1520 1520 1520 1520 1520 1520 1520 1520 1520 1520 1520 1521 1521 1522 1523 1524 1526 1527 1529
1506 1503 1501 1499 1497 1496 1496 1496 1497 1497 1498 1500 1502 1504 1505 1507 1510 1513 1514 1515 1517 1518 1519 1519 1520 1520 1520 1519 1519 1519 1518 1518 1518 1517 1517 1517 1517 1518 1519 1520 1521 1522 1524
1508 1505 1503 1501 1500 1499 1499 1499 1500 1501 1502 1503 1504 1506 1508 1509 1511 1513 1514 1515 1517 1518 1518 1519 1519 1519 1519 1519 1519 1518 1517 1516 1516 1515 1515 1514 1514 1514 1515 1516 1516 1517 1519
1511 1508 1505 1504 1503 1502 1502 1502 1502 1503 1504 1504 1506 1507 1508 1510 1511 1513 1514 1515 1516 1517 1517 1518 1518 1518 1518 1518 1517 1517 1517 1516 1515 1514 1513 1513 1512 1512 1512 1512 1512 1513 1514
1515 1512 1509 1508 1506 1505 1505 1505 1505 1505 1505 1506 1507 1508 1509 1510 1511 1512 1513 1514 1515 1516 1516 1517 1517 1517 1517 1517 1517 1516 1516 1515 1514 1513 1512 1511 1511 1511 1510 1510 1510 1510 1510
1522 1519 1516 1514 1511 1509 1508 1508 1507 1507 1507 1507 1508 1509 1509 1510 1510 1511 1511 1512 1513 1513 1514 1514 1515 1515 1515 1515 1515 1515 1515 1515 1514 1513 1512 1511 1510 1509 1509 1508 1508 1508 1508
1529 1526 1523 1520 1517 1515 1513 1512 1511 1510 1509 1509 1509 1509 1509 1509 1510 1510 1510 1510 1510 1510 1511 1511 1511 1511 1512 1511 1511 1512 1513 1513 1513 1513 1512 1511 1509 1509 1508 1508 1507 1507 1507
1535 1532 1529 1526 1524 1521 1519 1517 1515 1514 1513 1511 1511 1510 1510 1509 1509 1508 1508 1508 1508 1507 1507 1507 1507 1507 1508 1508 1508 1509 1510 1511 1511 1511 1511 1510 1509 1509 1509 1508 1507 1507 1506
1539 1536 1534 1531 1529 1526 1524 1522 1520 1518 1516 1514 1513 1512 1511 1510 1509 1508 1507 1506 1505 1505 1504 1504 1504 1504 1504 1504 1505 1506 1507 1508 1508 1509 1509 1510 1510 1508 1509 1509 1508 1508 1507
1542 1540 1537 1535 1533 1530 1528 1527 1524 1522 1520 1518 1516 1515 1514 1512 1510 1509 1508 1506 1505 1504 1503 1502 1502 1501 1501 1501 1502 1502 1504 1505 1505 1506 1507 1508 1508 1507 1507 1507 1508 1507 1506
1544 1542 1540 1538 1536 1533 1531 1530 1528 1526 1523 1522 1520 1518 1516 1514 1512 1511 1509 1507 1506 1504 1503 1502 1501 1500 1499 1499 1499 1500 1501 1502 1502 1503 1504 1505 1505 1506 1506 1506 1507 1507 1506
1546 1545 1543 1541 1539 1536 1535 1533 1531 1529 1527 1525 1523 1521 1519 1517 1514 1513 1511 1509 1507 1505 1504 1502 1501 1500 1499 1498 1498 1498 1499 1500 1500 1501 1502 1503 1503 1504 1504 1505 1505 1505 1504
1548 1546 1545 1543 1541 1539 1537 1535 1533 1531 1529 1527 1525 1523 1521 1519 1516 1514 1513 1511 1509 1507 1505 1504 1503 1501 1500 1499 1498 1498 1498 1498 1499 1500 1501 1501 1502 1503 1503 1504 1503 1503 1503
1549 1547 1546 1545 1543 1541 1539 1537 1535 1533 1531 1529 1527 1525 1523 1520 1518 1516 1515 1513 1511 1509 1507 1506 1505 1503 1502 1501 1500 1499 1498 1498 1499 1499 1499 1500 1501 1502 1503 1502 1502 1502 1502
1549 1548 1547 1546 1544 1542 1540 1538 1536 1534 1533 1531 1529 1527 1525 1523 1521 1518 1516 1514 1513 1511 1510 1508 1507 1506 1504 1503 1502 1501 1500 1499 1499 1499 1500 1500 1501 1501 1502 1502 1502 1502 1501
1549 1547 1546 1545 1544 1542 1541 1539 1537 1536 1535 1533 1531 1529 1527 1525 1523 1520 1518 1516 1515 1513 1512 1511 1509 1508 1507 1505 1504 1503 1502 1501 1500 1500 1501 1501 1501 1502 1502 1502 1502 1501 1501
1548 1547 1546 1544 1543 1542 1540 1539 1537 1536 1535 1534 1532 1530 1529 1527 1525 1523 1521 1519 1518 1516 1515 1514 1512 1511 1509 1508 1507 1506 1504 1503 1503 1503 1502 1502 1502 1503 1503 1503 1502 1502 1501